Weather History for KMJQ - January, 2013

Change the Weather History Date:

Friday, January 25, 2013

  Actual Average Record
Temperature  
Mean Temperature 16 °F -  
Max Temperature 26 °F 22 °F 53 °F (2002)
Min Temperature 5 °F 8 °F -14 °F (1997)
Degree Days  
Heating Degree Days 50    
Moisture  
Dew Point 6 °F    
Average Humidity 65    
Maximum Humidity 80    
Minimum Humidity 49    
Precipitation  
Precipitation 0.00 in - - ()
Sea Level Pressure  
Sea Level Pressure 30.10 in    
Wind  
Wind Speed 14 mph (WNW)    
Max Wind Speed 26 mph    
Max Gust Speed 33 mph    
Visibility 10 miles    
Events      
Averages and records for this station are not official NWS values.
T = Trace of Precipitation, MM = Missing Value Source: NWS Daily Summary

Daily Weather History Graph

Daily Weather History Graph

Search for Another Location

Airport or City:

Trip Planner

Search our weather history database for the weather conditions in past years. The results will help you decide how hot, cold, wet, or windy it might be!

Date:

Astronomy

Jan. 25, 2013 Rise Set
Actual Time 7:43 AM CST 5:22 PM CST
Civil Twilight 7:12 AM CST 5:53 PM CST
Nautical Twilight 6:37 AM CST 6:27 PM CST
Astronomical Twilight 6:03 AM CST 7:01 PM CST
Moon 4:20 PM CST (1/25) 6:23 AM CST (1/25)
Length of Visible Light 10h 40m
Length of Day
9h 38m
Waxing Gibbous, 98% of the Moon is Illuminated
Jan 25
Waxing Gibbous
Jan 26
Full
Feb 3
Last Quarter
Feb 10
New
Feb 17
First Quarter

Hourly Weather History & Observations

Time (CST) Temp. Windchill Dew Point Humidity Pressure Visibility Wind Dir Wind Speed Gust Speed Precip Events Conditions
12:13 AM 17.6 °F 3.7 °F 5.0 °F 58% 30.09 in 10.0 mi South 13.8 mph - N/A   Scattered Clouds
12:33 AM 17.6 °F 6.4 °F 5.0 °F 58% 30.09 in 10.0 mi SSW 9.2 mph - N/A   Overcast
12:52 AM 17.6 °F 5.0 °F 5.0 °F 58% 30.08 in 10.0 mi SSW 11.5 mph - N/A   Mostly Cloudy
1:13 AM 17.6 °F 5.0 °F 5.0 °F 58% 30.07 in 10.0 mi SSW 11.5 mph - N/A   Overcast
1:33 AM 17.6 °F 6.4 °F 5.0 °F 58% 30.06 in 10.0 mi SSW 9.2 mph - N/A   Overcast
1:53 AM 17.6 °F 3.2 °F 5.0 °F 58% 30.03 in 10.0 mi SSW 15.0 mph - N/A   Overcast
2:13 AM 17.6 °F 2.7 °F 5.0 °F 58% 30.03 in 10.0 mi SSW 16.1 mph - N/A   Mostly Cloudy
2:33 AM 17.6 °F 4.3 °F 5.0 °F 58% 30.04 in 10.0 mi SSW 12.7 mph - N/A   Scattered Clouds
2:52 AM 15.8 °F 2.7 °F 5.0 °F 62% 30.03 in 10.0 mi SW 11.5 mph 19.6 mph N/A   Clear
3:13 AM 15.8 °F 1.4 °F 5.0 °F 62% 30.02 in 10.0 mi SW 13.8 mph 18.4 mph N/A   Clear
3:33 AM 14.0 °F 0.5 °F 5.0 °F 67% 30.02 in 10.0 mi SW 11.5 mph - N/A   Clear
3:52 AM 14.0 °F 0.5 °F 5.0 °F 67% 30.02 in 10.0 mi SW 11.5 mph 17.3 mph N/A   Clear
4:13 AM 14.0 °F 0.5 °F 5.0 °F 67% 30.00 in 10.0 mi SW 11.5 mph - N/A   Clear
4:33 AM 14.0 °F 2.0 °F 5.0 °F 67% 30.00 in 10.0 mi SW 9.2 mph - N/A   Clear
4:52 AM 14.0 °F 0.5 °F 5.0 °F 67% 30.00 in 10.0 mi SW 11.5 mph - N/A   Clear
5:13 AM 14.0 °F 2.9 °F 5.0 °F 67% 30.00 in 10.0 mi WSW 8.1 mph - N/A   Clear
5:33 AM 14.0 °F 1.2 °F 5.0 °F 67% 29.98 in 10.0 mi WSW 10.4 mph - N/A   Clear
5:52 AM 15.8 °F 2.7 °F 6.8 °F 68% 29.98 in 10.0 mi WSW 11.5 mph - N/A   Mostly Cloudy
6:13 AM 17.6 °F 3.2 °F 8.6 °F 68% 29.98 in 10.0 mi WSW 15.0 mph - N/A   Overcast
6:30 AM 17.6 °F 3.7 °F 8.6 °F 68% 29.98 in 10.0 mi West 13.8 mph 18.4 mph N/A   Overcast
6:53 AM 17.6 °F 3.7 °F 8.6 °F 68% 29.98 in 10.0 mi West 13.8 mph 19.6 mph N/A   Overcast
7:33 AM 19.4 °F 6.0 °F 10.4 °F 68% 29.99 in 10.0 mi West 13.8 mph - N/A   Overcast
7:53 AM 19.4 °F 7.2 °F 12.2 °F 74% 30.00 in 10.0 mi WNW 11.5 mph - N/A   Overcast
8:12 AM 21.2 °F 7.3 °F 14.0 °F 74% 30.00 in 10.0 mi WNW 16.1 mph - N/A   Overcast
8:33 AM 21.2 °F 7.8 °F 15.8 °F 80% 30.00 in 10.0 mi WNW 15.0 mph 23.0 mph N/A   Overcast
8:53 AM 23.0 °F 9.6 °F 17.6 °F 80% 30.00 in 10.0 mi WNW 16.1 mph 23.0 mph N/A   Overcast
9:12 AM 23.0 °F 8.3 °F 17.6 °F 80% 30.01 in 10.0 mi WNW 19.6 mph 26.5 mph N/A   Overcast
9:33 AM 24.8 °F 9.3 °F 17.6 °F 74% 30.01 in 10.0 mi NW 24.2 mph 33.4 mph N/A   Overcast
9:53 AM 24.8 °F 13.4 °F 17.6 °F 74% 30.02 in 10.0 mi WNW 12.7 mph 26.5 mph N/A   Overcast
10:12 AM 24.8 °F 11.9 °F 17.6 °F 74% 30.03 in 10.0 mi WNW 16.1 mph 23.0 mph N/A   Overcast
10:33 AM 26.6 °F 14.7 °F 17.6 °F 69% 30.03 in 10.0 mi NW 15.0 mph 21.9 mph N/A   Overcast
10:53 AM 26.6 °F 12.0 °F 17.6 °F 69% 30.04 in 7.0 mi NW 23.0 mph 28.8 mph N/A   Overcast
11:13 AM 26.6 °F 12.4 °F 17.6 °F 69% 30.06 in 10.0 mi WNW 21.9 mph 31.1 mph N/A   Overcast
11:33 AM 26.6 °F 13.8 °F 17.6 °F 69% 30.06 in 7.0 mi NW 17.3 mph 25.3 mph N/A   Overcast
11:53 AM 24.8 °F 10.7 °F 17.6 °F 74% 30.07 in 10.0 mi NW 19.6 mph 26.5 mph N/A   Overcast
12:13 PM 26.6 °F 11.1 °F 17.6 °F 69% 30.07 in 10.0 mi NW 26.5 mph - N/A   Overcast
12:33 PM 24.8 °F 9.0 °F 14.0 °F 64% 30.07 in 10.0 mi NW 25.3 mph 31.1 mph N/A   Overcast
12:53 PM 23.0 °F 6.9 °F 12.2 °F 63% 30.08 in 10.0 mi NW 24.2 mph 32.2 mph N/A   Mostly Cloudy
1:13 PM 23.0 °F 7.6 °F 12.2 °F 63% 30.08 in 10.0 mi NW 21.9 mph 27.6 mph N/A   Scattered Clouds
1:33 PM 23.0 °F 7.6 °F 10.4 °F 59% 30.09 in 10.0 mi NW 21.9 mph 31.1 mph N/A   Scattered Clouds
1:53 PM 23.0 °F 7.6 °F 8.6 °F 54% 30.10 in 10.0 mi NW 21.9 mph 28.8 mph N/A   Clear
2:13 PM 21.2 °F 5.2 °F 5.0 °F 50% 30.10 in 10.0 mi NW 21.9 mph 28.8 mph N/A   Clear
2:33 PM 21.2 °F 4.2 °F 5.0 °F 50% 30.10 in 10.0 mi NW 25.3 mph 31.1 mph N/A   Clear
2:52 PM 19.4 °F 3.2 °F 3.2 °F 49% 30.11 in 10.0 mi NW 20.7 mph 26.5 mph N/A   Clear
3:13 PM 19.4 °F 3.2 °F 3.2 °F 49% 30.12 in 10.0 mi NNW 20.7 mph - N/A   Clear
3:33 PM 17.6 °F 0.5 °F 1.4 °F 49% 30.12 in 10.0 mi NNW 21.9 mph 27.6 mph N/A   Clear
3:52 PM 17.6 °F -0.3 °F 1.4 °F 49% 30.13 in 10.0 mi NW 24.2 mph 28.8 mph N/A   Clear
4:13 PM 17.6 °F 2.2 °F 3.2 °F 53% 30.14 in 10.0 mi NW 17.3 mph - N/A   Clear
4:33 PM 15.8 °F -1.1 °F 1.4 °F 53% 30.15 in 10.0 mi NW 19.6 mph 25.3 mph N/A   Clear
4:52 PM 14.0 °F -3.9 °F 1.4 °F 57% 30.15 in 10.0 mi NNW 20.7 mph 24.2 mph N/A   Clear
5:13 PM 12.2 °F -5.3 °F 1.4 °F 62% 30.16 in 10.0 mi NNW 18.4 mph 23.0 mph N/A   Clear
5:33 PM 12.2 °F -3.1 °F 1.4 °F 62% 30.16 in 10.0 mi NNW 13.8 mph 20.7 mph N/A   Clear
5:52 PM 10.4 °F -6.6 °F 1.4 °F 67% 30.17 in 10.0 mi NNW 16.1 mph 21.9 mph N/A   Clear
6:13 PM 10.4 °F -5.4 °F 1.4 °F 67% 30.17 in 10.0 mi NNW 13.8 mph 23.0 mph N/A   Clear
6:32 PM 10.4 °F -6.0 °F 1.4 °F 67% 30.18 in 10.0 mi NNW 15.0 mph 21.9 mph N/A   Clear
6:53 PM 10.4 °F -6.6 °F -0.4 °F 62% 30.19 in 10.0 mi NNW 16.1 mph 20.7 mph N/A   Clear
7:13 PM 8.6 °F -8.3 °F -0.4 °F 67% 30.20 in 10.0 mi NW 15.0 mph 20.7 mph N/A   Clear
7:32 PM 8.6 °F -7.7 °F -0.4 °F 67% 30.21 in 10.0 mi NNW 13.8 mph - N/A   Clear
7:53 PM 8.6 °F -6.3 °F -0.4 °F 67% 30.21 in 10.0 mi NNW 11.5 mph 17.3 mph N/A   Clear
8:13 PM 8.6 °F -4.7 °F -0.4 °F 67% 30.22 in 10.0 mi NNW 9.2 mph - N/A   Clear
8:32 PM 6.8 °F -8.6 °F -0.4 °F 72% 30.23 in 10.0 mi NW 11.5 mph 16.1 mph N/A   Clear
8:53 PM 6.8 °F -8.6 °F -2.2 °F 67% 30.23 in 10.0 mi NNW 11.5 mph - N/A   Clear
9:13 PM 6.8 °F -6.9 °F -2.2 °F 67% 30.23 in 10.0 mi NNW 9.2 mph 17.3 mph N/A   Clear
9:32 PM 6.8 °F -7.8 °F -2.2 °F 67% 30.24 in 10.0 mi NNW 10.4 mph - N/A   Clear
9:53 PM 5.0 °F -10.0 °F -2.2 °F 72% 30.25 in 10.0 mi NNW 10.4 mph - N/A   Clear
10:13 PM 5.0 °F -5.6 °F -2.2 °F 72% 30.25 in 10.0 mi NNW 5.8 mph - N/A   Clear
10:52 PM 5.0 °F -5.6 °F -2.2 °F 72% 30.25 in 10.0 mi NNW 5.8 mph - N/A   Clear
11:13 PM 5.0 °F -2.1 °F -2.2 °F 72% 30.25 in 10.0 mi North 3.5 mph - N/A   Clear
11:32 PM 5.0 °F -4.1 °F -2.2 °F 72% 30.25 in 10.0 mi North 4.6 mph - N/A   Clear
11:53 PM 5.0 °F - -2.2 °F 72% 30.25 in 10.0 mi Calm Calm - N/A   Clear